| time (UTC) | temp F | wind direction | speed MPH | gust MPH | rain 1hr in | rain 24hr in | rain mn in | humidity % | barometer mb |
| 20260505000505 | 77 | 200 | 8.0 | 14.0 | 0.00 | 0.00 | 0.00 | 57 | 1010.1 |
| 20260505000005 | 78 | 145 | 9.0 | 17.0 | 0.00 | 0.00 | 0.00 | 56 | 1010.2 |
| 20260504235505 | 78 | 194 | 8.0 | 13.0 | 0.00 | 0.00 | 0.00 | 56 | 1010.2 |
| 20260504235005 | 78 | 195 | 7.0 | 14.0 | 0.00 | 0.00 | 0.00 | 56 | 1010.1 |
| 20260504234005 | 78 | 182 | 7.0 | 14.0 | 0.00 | 0.00 | 0.00 | 56 | 1010.1 |
| 20260504233505 | 78 | 187 | 6.0 | 12.0 | 0.00 | 0.00 | 0.00 | 55 | 1010.2 |
| 20260504233006 | 78 | 186 | 8.0 | 12.0 | 0.00 | 0.00 | 0.00 | 56 | 1010.2 |
| 20260504232505 | 78 | 194 | 6.0 | 13.0 | 0.00 | 0.00 | 0.00 | 55 | 1010.2 |
| 20260504232005 | 78 | 186 | 5.0 | 13.0 | 0.00 | 0.00 | 0.00 | 56 | 1010.3 |
| 20260504231505 | 77 | 179 | 9.0 | 14.0 | 0.00 | 0.00 | 0.00 | 57 | 1010.3 |
| 20260504231005 | 77 | 159 | 5.0 | 12.0 | 0.00 | 0.00 | 0.00 | 58 | 1010.4 |
| 20260504230505 | 76 | 185 | 9.0 | 16.0 | 0.00 | 0.00 | 0.00 | 58 | 1010.4 |
| 20260504225505 | 76 | 172 | 5.0 | 14.0 | 0.00 | 0.00 | 0.00 | 58 | 1010.5 |
| 20260504225005 | 76 | 156 | 7.0 | 17.0 | 0.00 | 0.00 | 0.00 | 58 | 1010.6 |
| 20260504224505 | 76 | 165 | 7.0 | 13.0 | 0.00 | 0.00 | 0.00 | 57 | 1010.7 |
| 20260504224005 | 76 | 159 | 7.0 | 12.0 | 0.00 | 0.00 | 0.00 | 56 | 1010.8 |
| 20260504223505 | 75 | 162 | 7.0 | 16.0 | 0.00 | 0.00 | 0.00 | 60 | 1010.8 |
| 20260504223006 | 75 | 167 | 10.0 | 14.0 | 0.00 | 0.00 | 0.00 | 57 | 1010.9 |
| 20260504222505 | 75 | 208 | 5.0 | 10.0 | 0.00 | 0.00 | 0.00 | 61 | 1010.9 |
| 20260504221505 | 74 | 162 | 6.0 | 16.0 | 0.00 | 0.00 | 0.00 | 60 | 1011.0 |
| 20260504221005 | 75 | 161 | 9.0 | 13.0 | 0.00 | 0.00 | 0.00 | 58 | 1011.0 |
| 20260504220005 | 75 | 183 | 5.0 | 9.0 | 0.00 | 0.00 | 0.00 | 60 | 1011.2 |
| 20260504215505 | 74 | 174 | 6.0 | 16.0 | 0.00 | 0.00 | 0.00 | 59 | 1011.2 |
| 20260504215005 | 74 | 142 | 5.0 | 13.0 | 0.00 | 0.00 | 0.00 | 58 | 1011.3 |
| 20260504214505 | 74 | 200 | 5.0 | 13.0 | 0.00 | 0.00 | 0.00 | 60 | 1011.3 |
| 20260504213505 | 73 | 132 | 6.0 | 13.0 | 0.00 | 0.00 | 0.00 | 60 | 1011.5 |
| 20260504212005 | 72 | 203 | 5.0 | 12.0 | 0.00 | 0.00 | 0.00 | 61 | 1011.6 |
| 20260504211505 | 72 | 258 | 3.0 | 12.0 | 0.00 | 0.00 | 0.00 | 60 | 1011.7 |
| 20260504210505 | 72 | 193 | 9.0 | 16.0 | 0.00 | 0.00 | 0.00 | 60 | 1012.1 |
| 20260504210005 | 71 | 143 | 5.0 | 8.0 | 0.00 | 0.00 | 0.00 | 62 | 1012.1 |
| 20260504205505 | 71 | 208 | 4.0 | 12.0 | 0.00 | 0.00 | 0.00 | 62 | 1012.2 |
| 20260504205005 | 71 | 166 | 6.0 | 10.0 | 0.00 | 0.00 | 0.00 | 63 | 1012.3 |
| 20260504204505 | 70 | 184 | 6.0 | 8.0 | 0.00 | 0.00 | 0.00 | 62 | 1012.4 |
| 20260504204005 | 71 | 132 | 8.0 | 13.0 | 0.00 | 0.00 | 0.00 | 61 | 1012.4 |
| 20260504203505 | 71 | 180 | 3.0 | 9.0 | 0.00 | 0.00 | 0.00 | 63 | 1012.4 |
| 20260504203005 | 70 | 153 | 6.0 | 10.0 | 0.00 | 0.00 | 0.00 | 64 | 1012.4 |
| 20260504202505 | 70 | 124 | 5.0 | 10.0 | 0.00 | 0.00 | 0.00 | 64 | 1012.5 |
| 20260504202005 | 69 | 124 | 6.0 | 10.0 | 0.00 | 0.00 | 0.00 | 66 | 1012.6 |
| 20260504201505 | 69 | 121 | 5.0 | 10.0 | 0.00 | 0.00 | 0.00 | 63 | 1012.6 |
| 20260504201005 | 69 | 168 | 7.0 | 10.0 | 0.00 | 0.00 | 0.00 | 63 | 1012.6 |
| 20260504200505 | 69 | 196 | 4.0 | 12.0 | 0.00 | 0.00 | 0.00 | 65 | 1012.7 |
| 20260504200005 | 68 | 124 | 7.0 | 10.0 | 0.00 | 0.00 | 0.00 | 64 | 1012.8 |
| 20260504195506 | 68 | 193 | 6.0 | 10.0 | 0.00 | 0.00 | 0.00 | 65 | 1012.7 |
| 20260504194505 | 67 | 199 | 3.0 | 8.0 | 0.00 | 0.00 | 0.00 | 67 | 1012.8 |
| 20260504194005 | 67 | 166 | 4.0 | 7.0 | 0.00 | 0.00 | 0.00 | 65 | 1012.8 |
| 20260504193505 | 67 | 158 | 3.0 | 8.0 | 0.00 | 0.00 | 0.00 | 66 | 1013.0 |
| 20260504193005 | 67 | 144 | 4.0 | 8.0 | 0.00 | 0.00 | 0.00 | 67 | 1013.0 |
| 20260504192505 | 66 | 171 | 3.0 | 7.0 | 0.00 | 0.00 | 0.00 | 67 | 1013.1 |
| 20260504192005 | 66 | 156 | 4.0 | 9.0 | 0.00 | 0.00 | 0.00 | 67 | 1013.1 |
| 20260504191505 | 66 | 186 | 5.0 | 9.0 | 0.00 | 0.00 | 0.00 | 68 | 1013.1 |
| 20260504191006 | 66 | 146 | 6.0 | 10.0 | 0.00 | 0.00 | 0.00 | 67 | 1013.3 |
| 20260504190505 | 66 | 167 | 3.0 | 9.0 | 0.00 | 0.00 | 0.00 | 67 | 1013.3 |
| 20260504185505 | 65 | 204 | 5.0 | 10.0 | 0.00 | 0.00 | 0.00 | 69 | 1013.4 |
| 20260504185005 | 65 | 146 | 9.0 | 12.0 | 0.00 | 0.00 | 0.00 | 68 | 1013.5 |
| 20260504184505 | 65 | 187 | 6.0 | 12.0 | 0.00 | 0.00 | 0.00 | 70 | 1013.5 |
| 20260504184005 | 64 | 191 | 6.0 | 10.0 | 0.00 | 0.00 | 0.00 | 70 | 1013.5 |
| 20260504183504 | 64 | 210 | 6.0 | 10.0 | 0.00 | 0.00 | 0.00 | 72 | 1013.5 |
| 20260504183005 | 63 | 211 | 3.0 | 8.0 | 0.00 | 0.00 | 0.00 | 71 | 1013.4 |
| 20260504182505 | 63 | 118 | 9.0 | 13.0 | 0.00 | 0.00 | 0.00 | 71 | 1013.5 |
| 20260504181005 | 64 | 209 | 4.0 | 13.0 | 0.00 | 0.00 | 0.00 | 70 | 1013.4 |
| 20260504180504 | 64 | 190 | 5.0 | 12.0 | 0.00 | 0.00 | 0.00 | 71 | 1013.5 |
| 20260504180006 | 64 | 168 | 8.0 | 12.0 | 0.00 | 0.00 | 0.00 | 72 | 1013.5 |
| 20260504175505 | 63 | 195 | 3.0 | 9.0 | 0.00 | 0.00 | 0.00 | 71 | 1013.5 |
| 20260504175005 | 63 | 180 | 6.0 | 10.0 | 0.00 | 0.00 | 0.00 | 72 | 1013.5 |
| 20260504174505 | 63 | 183 | 5.0 | 12.0 | 0.00 | 0.00 | 0.00 | 72 | 1013.5 |
| 20260504173505 | 63 | 210 | 7.0 | 13.0 | 0.00 | 0.00 | 0.00 | 72 | 1013.5 |
| 20260504173005 | 62 | 170 | 5.0 | 10.0 | 0.00 | 0.00 | 0.00 | 74 | 1013.5 |
| 20260504172505 | 62 | 151 | 7.0 | 12.0 | 0.00 | 0.00 | 0.00 | 72 | 1013.5 |
| 20260504171505 | 62 | 153 | 5.0 | 13.0 | 0.00 | 0.00 | 0.00 | 73 | 1013.3 |
| 20260504171005 | 62 | 191 | 5.0 | 12.0 | 0.00 | 0.00 | 0.00 | 74 | 1013.2 |
| 20260504170505 | 61 | 196 | 6.0 | 12.0 | 0.00 | 0.00 | 0.00 | 74 | 1013.3 |
| 20260504150505 | 56 | 0 | 3.0 | 10.0 | 0.00 | 0.00 | 0.00 | 83 | 1012.8 |
| 20260504141004 | 54 | 210 | 5.0 | 12.0 | 0.00 | 0.00 | 0.00 | 86 | 1012.4 |
| 20260504140505 | 54 | 197 | 5.0 | 12.0 | 0.00 | 0.00 | 0.00 | 86 | 1012.3 |
| 20260504130504 | 55 | 202 | 5.0 | 14.0 | 0.00 | 0.00 | 0.00 | 85 | 1011.2 |
| 20260504110505 | 59 | 198 | 9.0 | 14.0 | 0.00 | 0.00 | 0.00 | 76 | 1009.4 |
| 20260504100504 | 60 | 199 | 4.0 | 7.0 | 0.00 | 0.00 | 0.00 | 75 | 1008.7 |
| 20260504082005 | 66 | 182 | 2.0 | 3.0 | 0.00 | 0.00 | 0.00 | 62 | 1008.2 |
| 20260504081505 | 67 | 166 | 1.0 | 2.0 | 0.00 | 0.00 | 0.00 | 60 | 1008.1 |
| 20260504081005 | 68 | 168 | 2.0 | 3.0 | 0.00 | 0.00 | 0.00 | 59 | 1008.1 |
| 20260504050005 | 73 | 262 | 1.0 | 1.0 | 0.00 | 0.00 | 0.00 | 47 | 1007.6 |
| 20260504045504 | 74 | 38 | 1.0 | 2.0 | 0.00 | 0.00 | 0.00 | 48 | 1007.6 |
| 20260504045004 | 74 | 287 | 2.0 | 3.0 | 0.00 | 0.00 | 0.00 | 44 | 1007.6 |
| 20260504044505 | 75 | 263 | 2.0 | 3.0 | 0.00 | 0.00 | 0.00 | 44 | 1007.5 |
| 20260504044005 | 76 | 247 | 3.0 | 3.0 | 0.00 | 0.00 | 0.00 | 43 | 1007.5 |
| 20260504043505 | 76 | 266 | 2.0 | 3.0 | 0.00 | 0.00 | 0.00 | 42 | 1007.4 |
| 20260504043004 | 76 | 300 | 2.0 | 3.0 | 0.00 | 0.00 | 0.00 | 42 | 1007.4 |
| 20260504042504 | 76 | 290 | 2.0 | 2.0 | 0.00 | 0.00 | 0.00 | 41 | 1007.4 |
| 20260504041505 | 77 | 321 | 2.0 | 3.0 | 0.00 | 0.00 | 0.00 | 41 | 1007.3 |
| 20260504041005 | 77 | 317 | 3.0 | 5.0 | 0.00 | 0.00 | 0.00 | 39 | 1007.2 |
| 20260504040005 | 77 | 301 | 2.0 | 3.0 | 0.00 | 0.00 | 0.00 | 41 | 1007.1 |
| 20260504035504 | 77 | 307 | 2.0 | 3.0 | 0.00 | 0.00 | 0.00 | 41 | 1007.1 |
| 20260504035004 | 77 | 308 | 2.0 | 5.0 | 0.00 | 0.00 | 0.00 | 42 | 1007.0 |
| 20260504034504 | 77 | 318 | 2.0 | 3.0 | 0.00 | 0.00 | 0.00 | 42 | 1007.0 |
| 20260504034004 | 77 | 300 | 1.0 | 2.0 | 0.00 | 0.00 | 0.00 | 42 | 1006.9 |
| 20260504033505 | 77 | 296 | 1.0 | 2.0 | 0.00 | 0.00 | 0.00 | 41 | 1006.9 |
| 20260504033005 | 77 | 328 | 2.0 | 3.0 | 0.00 | 0.00 | 0.00 | 40 | 1006.8 |
| 20260504031507 | 77 | 297 | 1.0 | 3.0 | 0.00 | 0.00 | 0.00 | 40 | 1006.7 |
| 20260504031005 | 77 | 322 | 1.0 | 2.0 | 0.00 | 0.00 | 0.00 | 42 | 1006.6 |
| 20260504030005 | 78 | 257 | 1.0 | 2.0 | 0.00 | 0.00 | 0.00 | 43 | 1006.5 |
| 20260504025005 | 80 | 248 | 2.0 | 3.0 | 0.00 | 0.00 | 0.00 | 38 | 1006.4 |
| 20260504024504 | 81 | 245 | 2.0 | 2.0 | 0.00 | 0.00 | 0.00 | 39 | 1006.4 |
| 20260504024004 | 82 | 245 | 2.0 | 2.0 | 0.00 | 0.00 | 0.00 | 37 | 1006.4 |
| 20260504023505 | 84 | 245 | 2.0 | 2.0 | 0.00 | 0.00 | 0.00 | 35 | 1006.4 |
| 20260504021505 | 85 | 245 | 2.0 | 2.0 | 0.00 | 0.00 | 0.00 | 35 | 1006.3 |
| 20260504021004 | 85 | 245 | 1.0 | 1.0 | 0.00 | 0.00 | 0.00 | 37 | 1006.3 |
| 20260504015504 | 87 | 245 | 1.0 | 2.0 | 0.00 | 0.00 | 0.00 | 36 | 1006.3 |
| 20260504015005 | 87 | 245 | 1.0 | 2.0 | 0.00 | 0.00 | 0.00 | 37 | 1006.4 |
| 20260504014505 | 88 | 245 | 1.0 | 1.0 | 0.00 | 0.00 | 0.00 | 37 | 1006.4 |
| 20260504014004 | 89 | 245 | 1.0 | 2.0 | 0.00 | 0.00 | 0.00 | 34 | 1006.5 |
| 20260504013504 | 90 | 245 | 1.0 | 1.0 | 0.00 | 0.00 | 0.00 | 34 | 1006.4 |
| 20260504013005 | 91 | 245 | 1.0 | 1.0 | 0.00 | 0.00 | 0.00 | 32 | 1006.5 |
| 20260504012504 | 92 | 202 | 1.0 | 2.0 | 0.00 | 0.00 | 0.00 | 31 | 1006.5 |
| 20260504012004 | 92 | 94 | 1.0 | 2.0 | 0.00 | 0.00 | 0.00 | 28 | 1006.6 |
| 20260504011504 | 92 | 94 | 1.0 | 2.0 | 0.00 | 0.00 | 0.00 | 24 | 1006.6 |
| 20260504011005 | 92 | 94 | 0.0 | 2.0 | 0.00 | 0.00 | 0.00 | 27 | 1006.7 |
| 20260504010504 | 92 | 94 | 1.0 | 2.0 | 0.00 | 0.00 | 0.00 | 25 | 1006.7 |
| 20260504010004 | 91 | 94 | 0.0 | 2.0 | 0.00 | 0.00 | 0.00 | 22 | 1006.8 |
| 20260504005504 | 91 | 94 | 1.0 | 2.0 | 0.00 | 0.00 | 0.00 | 23 | 1006.9 |
| 20260504005005 | 92 | 94 | 1.0 | 2.0 | 0.00 | 0.00 | 0.00 | 24 | 1006.9 |
| 20260504004005 | 91 | 94 | 1.0 | 2.0 | 0.00 | 0.00 | 0.00 | 22 | 1007.0 |
| 20260504003005 | 91 | 86 | 1.0 | 2.0 | 0.00 | 0.00 | 0.00 | 22 | 1007.0 |
| 20260504002505 | 91 | 102 | 1.0 | 1.0 | 0.00 | 0.00 | 0.00 | 24 | 1007.0 |
| 20260504002004 | 92 | 102 | 1.0 | 1.0 | 0.00 | 0.00 | 0.00 | 26 | 1007.0 |